SL-3 DEB

Satellite information

Favourite Embed

Satellite Type and Status

DEBRISIN ORBIT

Key statistics

Satellite SL-3 DEB at a glance.

Uptime

18259

Days in orbit

Revolutions

≈ 14.1

Per day

Orbit

LEO

Low Earth Orbit

Inclination

81.3

Latest

Satellite identification and parameters

Extended collection of information and parameters for SL-3 DEB.

Object identification

Identified? True

Debris? True

Object name: SL-3 DEB

International designator: 1975-064C

Object number (NORAD): 8039

Object ID (CCSDS): 8039

Country: COMMONWEALTH OF INDEPENDENT STATES (CIS)

Current information (Y/N): Y

RCS size: SMALL

Orbital parameters

Period: 102.18 minutes

Inclination: 81.2975 deg

SMA: 7239.993 km

Apoapsis: 883.916 km

Periapsis: 839.8 km

RAAN: 45.9844 deg

Eccentricy: 0.0030467

Argument of periapsis: 100.9126 deg

Mean anomaly: 259.5475 deg

Mean motion: 14.09274262 rev/day

Mean motion (dot): 0.00000222 rev/day2

B* drag term: 0.00011981 1/REarth

Two-line elements (TLE)

Creation date: July 6, 2025, 6:05 p.m.

Reference frame: TEME

Reference center: EARTH

Epoch: July 6, 2025, 3:21 p.m. UTC

TLE line 0: 0 SL-3 DEB

TLE line 1: 1 08039U 75064C 25187.63967310 .00000222 00000-0 11981-3 0 9999

TLE line 2: 2 08039 81.2975 45.9844 0030467 100.9126 259.5475 14.09274262569012

Live tracking on map

Real-time ground track for satellite SL-3 DEB.

In-orbit conjunctions

A list of the most updated potential collisions computed for object SL-3 DEB.

Target Orbit TCA Probability of collision Miss distance Type
CZ-6A DEB LEO 2025-03-17 01:25:29 0.0002473826 133.0 (m) DEBRIS
THOR ABLESTAR DEB LEO 2024-11-13 07:46:22 0.0001125115 562.0 (m) DEBRIS

Associated space launch

Second generation soviet meteorological satellite

SL-3 DEB was lifted into orbit during the mission ‘Vostok 8A92M | Meteor-2 1’, on board a Vostok 8A92M space rocket.

The launch took place on July 11, 1975, 4:15 a.m. from 41/1.

For more information about the launch, click the button.

Launch to space Vostok 8A92M | Meteor-2 1
Vostok 8A92M | Meteor-2 1

Agency: N/A

Status: Launch Successful

Launch date: July 11, 1975, 4:15 a.m. UTC

Rocket: Vostok 8A92M

Launch pad: 41/1

Location: Plesetsk Cosmodrome, Russian Federation

...

Latest news about this satellite

There are no fresh news available about this satellite. Check back as we update our databases every day.


Newsletter sign-up

Weekly statistics, charts and insights to help you stay on top of the space industry.